{"data":{"norad_id":62639,"intl_designator":"2025-009AG","name":"FLOCK 4G-3","alt_names":[],"object_type":"PAYLOAD","status":"ACTIVE","operator":null,"country":"US","launch_date":"2025-01-14","launch_site_code":"AFWTR","launch_vehicle":null,"mission":null,"orbit_class":"UNKNOWN","rcs_meters":null,"size_class":null,"mass_kg":null,"dimensions":null,"purposes":["earth_obs"],"wikipedia_slug":null,"has_3d_model":false,"image_url":null,"decayed_at":null,"tle_current":{"epoch":"2026-05-25T03:45:03.208032Z","epoch_age_seconds":54936,"freshness":"FRESH","line1":"1 62639U 25009AG  26145.15628713  .00010460  00000+0  37601-3 0  9993","line2":"2 62639  97.4026 227.2784 0003412  52.8236 307.3315 15.28814728 75385","mean_motion":15.28814728,"eccentricity":0.0003412,"inclination_deg":97.4026,"raan_deg":227.2784,"arg_perigee_deg":52.8236,"mean_anomaly_deg":307.3315,"bstar":0.00037601,"rev_number":7538,"period_min":94.190615358855,"perigee_km":477.01458873054,"apogee_km":481.69414083787,"semimajor_km":6857.4913647842,"source":"CELESTRAK","updated_at":"2026-05-25T13:38:13.338542Z"}}}